Tampa Macdill AFB, FL

2:49 PM EDT on September 26, 2017 (GMT -0400)
MacDill Air Force Base

Weather History for KMCF - January, 2014

Change the Weather History Date:

Monday, January 6, 2014

  Actual Average Record
Temperature  
Mean Temperature 58 °F -  
Max Temperature 68 °F 68 °F 84 °F (1998)
Min Temperature 46 °F 50 °F 33 °F (1999)
Degree Days  
Heating Degree Days 8    
Growing Degree Days 8 (Base 50)    
Moisture  
Dew Point 59 °F    
Average Humidity 92    
Maximum Humidity 100    
Minimum Humidity 49    
Precipitation  
Precipitation 0.00 in - - ()
Sea Level Pressure  
Sea Level Pressure 30.06 in    
Wind  
Wind Speed 9 mph (WSW)    
Max Wind Speed 22 mph    
Max Gust Speed 30 mph    
Visibility 5 miles    
Events Fog    
Averages and records for this station are not official NWS values.
T = Trace of Precipitation, MM = Missing Value Source: NWS Daily Summary

Daily Weather History Graph

Daily Weather History Graph

Search for Another Location

Airport or City:

Trip Planner

Search our weather history database for the weather conditions in past years. The results will help you decide how hot, cold, wet, or windy it might be!

Date:

Astronomy

Jan. 06, 2014 Rise Set
Actual Time 7:22 AM EST 5:49 PM EST
Civil Twilight 6:56 AM EST 6:15 PM EST
Nautical Twilight 6:27 AM EST 6:44 PM EST
Astronomical Twilight 5:59 AM EST 7:13 PM EST
Moon 11:09 AM EST (1/6) 11:46 PM EST (1/6)
Length of Visible Light 11h 18m
Length of Day
10h 27m
Waxing Crescent, 34% of the Moon is Illuminated
Jan 6
Waxing Crescent
Jan 7
First Quarter
Jan 15
Full
Jan 24
Last Quarter
Jan 30
New

Hourly Weather History & Observations

Time (EST) Temp. Dew Point Humidity Pressure Visibility Wind Dir Wind Speed Gust Speed Precip Events Conditions
12:58 AM 62.6 °F 62.2 °F 99% 29.99 in 10.0 mi West 2.3 mph - N/A   Partly Cloudy
1:58 AM 63.1 °F 63.1 °F 100% 29.99 in 10.0 mi SW 2.3 mph - N/A   Partly Cloudy
2:58 AM 63.3 °F 63.0 °F 99% 29.99 in 10.0 mi SW 6.9 mph - N/A   Clear
3:33 AM 62.6 °F 62.6 °F 100% 29.98 in 1.5 mi SW 5.8 mph - N/A   Clear
3:38 AM 62.6 °F 62.6 °F 100% 29.98 in 1.0 mi SW 6.9 mph - N/A   Clear
3:43 AM 62.6 °F 62.6 °F 100% 29.98 in 1.0 mi WSW 6.9 mph - N/A   Clear
3:48 AM 62.6 °F 62.6 °F 100% 29.98 in 1.0 mi WSW 6.9 mph - N/A   Mist
3:53 AM 64.4 °F 64.4 °F 100% 29.98 in 1.5 mi WSW 6.9 mph - N/A   Scattered Clouds
3:58 AM 64.4 °F 64.4 °F 100% 29.99 in 1.2 mi SW 5.8 mph - N/A   Mostly Cloudy
4:03 AM 64.4 °F 64.4 °F 100% 29.98 in 1.0 mi SW 6.9 mph - N/A   Mist
4:18 AM 64.4 °F 64.4 °F 100% 29.97 in 0.8 mi SW 5.8 mph - N/A   Mist
4:23 AM 64.4 °F 64.4 °F 100% 29.97 in 0.5 mi SSW 8.1 mph - N/A Fog Fog
4:33 AM 64.4 °F 64.4 °F 100% 29.97 in 0.5 mi SSW 6.9 mph - N/A Fog Fog
4:58 AM 64.6 °F 64.6 °F 100% 29.98 in 0.5 mi SSW 9.2 mph - N/A Fog Fog
5:03 AM 64.4 °F 64.4 °F 100% 29.97 in 0.2 mi South 9.2 mph - N/A Fog Fog
5:28 AM 64.4 °F 64.4 °F 100% 29.97 in 0.5 mi SSW 10.4 mph - N/A Fog Fog
5:38 AM 64.4 °F 64.4 °F 100% 29.97 in 0.2 mi SSW 10.4 mph - N/A Fog Fog
5:53 AM 64.4 °F 64.4 °F 100% 29.98 in 0.5 mi SW 9.2 mph - N/A Fog Fog
5:58 AM 64.0 °F 64.0 °F 100% 29.99 in 0.5 mi SSW 8.1 mph - N/A Fog Fog
6:03 AM 64.4 °F 64.4 °F 100% 29.98 in 0.5 mi SSW 9.2 mph - N/A Fog Fog
6:13 AM 64.4 °F 64.4 °F 100% 29.98 in 0.5 mi SSW 9.2 mph - N/A Fog Fog
6:23 AM 64.4 °F 64.4 °F 100% 29.98 in 0.2 mi SSW 9.2 mph - N/A Fog Fog
6:33 AM 64.4 °F 64.4 °F 100% 29.98 in 0.5 mi South 9.2 mph - N/A Fog Fog
6:48 AM 64.4 °F 64.4 °F 100% 29.98 in 0.5 mi SSW 9.2 mph - N/A Fog Fog
6:53 AM 64.4 °F 64.4 °F 100% 29.98 in 0.2 mi SSW 9.2 mph - N/A Fog Fog
6:58 AM 64.2 °F 64.2 °F 100% 29.99 in 0.5 mi SSW 9.2 mph - N/A Fog Fog
7:03 AM 64.4 °F 64.4 °F 100% 29.98 in 0.5 mi SSW 10.4 mph - N/A Fog Fog
7:08 AM 64.4 °F 64.4 °F 100% 29.98 in 0.2 mi SSW 9.2 mph - N/A Fog Fog
7:58 AM 64.2 °F 64.2 °F 100% 30.02 in 0.2 mi SSW 6.9 mph - N/A Fog Fog
8:58 AM 65.3 °F 65.3 °F 100% 30.05 in 0.2 mi SW 6.9 mph - N/A Fog Fog
9:53 AM 66.2 °F 66.2 °F 100% 30.06 in 0.5 mi SSW 10.4 mph - N/A Fog Fog
9:58 AM 67.1 °F 67.1 °F 100% 30.07 in 0.5 mi SSW 12.7 mph - N/A Fog Fog
10:03 AM 66.2 °F 66.2 °F 100% 30.06 in 0.5 mi SSW 10.4 mph - N/A Fog Fog
10:08 AM 66.2 °F 66.2 °F 100% 30.06 in 0.2 mi SSW 11.5 mph - N/A Fog Fog
10:13 AM 68.0 °F 68.0 °F 100% 30.06 in 0.5 mi SSW 10.4 mph - N/A Fog Fog
10:18 AM 68.0 °F 68.0 °F 100% 30.06 in 1.0 mi SSW 10.4 mph - N/A   Mist
10:23 AM 68.0 °F 68.0 °F 100% 30.06 in 7.0 mi SSW 12.7 mph - N/A   Overcast
10:53 AM 66.2 °F 66.2 °F 100% 30.07 in 10.0 mi WNW 8.1 mph 20.7 mph N/A   Overcast
10:58 AM 66.4 °F 66.4 °F 100% 30.09 in 10.0 mi NW 12.7 mph 20.7 mph N/A   Overcast
11:03 AM 64.4 °F 64.4 °F 100% 30.08 in 10.0 mi NW 9.2 mph 20.7 mph N/A   Overcast
11:38 AM 64.4 °F 62.6 °F 94% 30.08 in 10.0 mi NW 9.2 mph 21.9 mph N/A   Overcast
11:58 AM 64.6 °F 62.6 °F 93% 30.09 in 10.0 mi NW 13.8 mph 20.7 mph N/A   Overcast
12:13 PM 62.6 °F 60.8 °F 94% 30.09 in 10.0 mi NW 12.7 mph 23.0 mph N/A   Overcast
12:23 PM 62.6 °F 60.8 °F 94% 30.09 in 9.0 mi NW 16.1 mph 21.9 mph N/A   Overcast
12:58 PM 59.7 °F 58.3 °F 95% 30.09 in 10.0 mi North 15.0 mph 25.3 mph N/A   Overcast
1:08 PM 59.0 °F 57.2 °F 94% 30.08 in 10.0 mi North 18.4 mph 26.5 mph N/A   Mostly Cloudy
1:13 PM 59.0 °F 55.4 °F 88% 30.09 in 10.0 mi NNW 16.1 mph 26.5 mph N/A   Mostly Cloudy
1:23 PM 59.0 °F 53.6 °F 82% 30.09 in 10.0 mi NNW 18.4 mph 26.5 mph N/A   Mostly Cloudy
1:28 PM 59.0 °F 53.6 °F 82% 30.09 in 10.0 mi North 15.0 mph 26.5 mph N/A   Mostly Cloudy
1:48 PM 59.0 °F 51.8 °F 77% 30.09 in 10.0 mi NNW 18.4 mph 27.6 mph N/A   Scattered Clouds
1:58 PM 59.5 °F 52.0 °F 76% 30.10 in 10.0 mi North 17.3 mph 29.9 mph N/A   Scattered Clouds
2:58 PM 55.2 °F 47.5 °F 75% 30.12 in 10.0 mi North 17.3 mph 26.5 mph N/A   Mostly Cloudy
3:58 PM 52.7 °F 44.6 °F 74% 30.14 in 10.0 mi North 21.9 mph 29.9 mph N/A   Mostly Cloudy
4:58 PM 50.5 °F 41.9 °F 72% 30.19 in 10.0 mi North 12.7 mph 25.3 mph N/A   Overcast
5:58 PM 49.5 °F 39.6 °F 69% 30.23 in 10.0 mi North 13.8 mph 25.3 mph N/A   Overcast
6:58 PM 48.6 °F 37.0 °F 64% 30.26 in 10.0 mi North 12.7 mph 21.9 mph N/A   Overcast
7:58 PM 48.6 °F 36.5 °F 63% 30.29 in 10.0 mi North 13.8 mph 19.6 mph N/A   Scattered Clouds
8:58 PM 48.4 °F 29.8 °F 49% 30.31 in 10.0 mi North 16.1 mph 23.0 mph N/A   Mostly Cloudy
9:58 PM 47.8 °F 32.0 °F 54% 30.34 in 10.0 mi North 12.7 mph 19.6 mph N/A   Scattered Clouds
10:58 PM 47.5 °F 32.0 °F 55% 30.33 in 10.0 mi North 10.4 mph 23.0 mph N/A   Scattered Clouds
11:58 PM 46.9 °F 30.7 °F 53% 30.31 in 10.0 mi North 10.4 mph 18.4 mph N/A   Partly Cloudy